Change the Weather History Date:

Thursday, August 29, 2013

  Actual Average Record
Temperature  
Mean Temperature 84 °F -  
Max Temperature 97 °F 86 °F 99 °F (1990)
Min Temperature 71 °F 61 °F 39 °F (1986)
Cooling Degree Days 18    
Growing Degree Days 34 (Base 50)    
Moisture  
Dew Point 72 °F    
Average Humidity 72    
Maximum Humidity 97    
Minimum Humidity 42    
Precipitation  
Precipitation 0.00 in - - ()
Sea Level Pressure  
Sea Level Pressure 30.00 in    
Wind  
Wind Speed 3 mph (NNW)    
Max Wind Speed 8 mph    
Max Gust Speed -    
Visibility 10 miles    
Events      
Averages and records for this station are not official NWS values.
T = Trace of Precipitation, MM = Missing Value Source: NWS Daily Summary

Daily Weather History Graph

Daily Weather History Graph

Search for Another Location

Airport or City:

Trip Planner

Search our weather history database for the weather conditions in past years. The results will help you decide how hot, cold, wet, or windy it might be!

Date:

Astronomy

Aug. 29, 2013 Rise Set
Actual Time 6:26 AM CDT 7:33 PM CDT
Civil Twilight 5:58 AM CDT 8:00 PM CDT
Nautical Twilight 5:26 AM CDT 8:33 PM CDT
Astronomical Twilight 4:52 AM CDT 9:06 PM CDT
Moon 12:19 AM CDT (8/29) 3:00 PM CDT (8/29)
Length of Visible Light 14h 01m
Length of Day
13h 07m
Last Quarter, 38% of the Moon is Illuminated
Aug 29
Last Quarter
Sep 5
New
Sep 12
First Quarter
Sep 19
Full
Sep 26
Last Quarter

Hourly Weather History & Observations

Time (CDT) Temp. Heat Index Dew Point Humidity Pressure Visibility Wind Dir Wind Speed Gust Speed Precip Events Conditions
12:58 AM 73.9 °F - 69.8 °F 87% 30.00 in 10.0 mi WSW 4.6 mph - N/A   Clear
1:58 AM 76.1 °F - 69.1 °F 79% 30.00 in 10.0 mi Calm Calm - N/A   Clear
2:58 AM 73.2 °F - 68.9 °F 86% 30.00 in 10.0 mi Calm Calm - N/A   Clear
3:58 AM 72.1 °F - 68.9 °F 89% 30.00 in 10.0 mi Calm Calm - N/A   Clear
4:58 AM 72.0 °F - 69.1 °F 91% 30.00 in 10.0 mi Calm Calm - N/A   Clear
5:58 AM 71.1 °F - 69.8 °F 96% 30.01 in 10.0 mi Calm Calm - N/A   Clear
6:58 AM 71.1 °F - 69.8 °F 96% 30.03 in 10.0 mi Calm Calm - N/A   Clear
7:58 AM 78.3 °F - 71.4 °F 79% 30.03 in 10.0 mi WNW 2.3 mph - N/A   Clear
8:58 AM 83.5 °F 88.0 °F 70.5 °F 65% 30.04 in 10.0 mi WNW 4.6 mph - N/A   Clear
9:58 AM 87.4 °F 92.3 °F 70.2 °F 56% 30.04 in 10.0 mi NW 8.1 mph - N/A   Clear
10:58 AM 89.6 °F 97.7 °F 73.0 °F 58% 30.04 in 10.0 mi Variable 5.8 mph - N/A   Clear
11:58 AM 92.1 °F 100.5 °F 72.5 °F 53% 30.03 in 10.0 mi NW 6.9 mph - N/A   Partly Cloudy
12:58 PM 92.3 °F 100.3 °F 72.5 °F 52% 30.02 in 10.0 mi NW 8.1 mph - N/A   Partly Cloudy
1:58 PM 94.1 °F 101.8 °F 72.0 °F 48% 30.01 in 10.0 mi North 5.8 mph - N/A   Clear
2:58 PM 95.4 °F 103.3 °F 71.4 °F 46% 29.99 in 10.0 mi NW 5.8 mph - N/A   Clear
3:58 PM 96.8 °F 103.8 °F 70.2 °F 42% 29.97 in 10.0 mi North 3.5 mph - N/A   Clear
4:58 PM 96.6 °F 104.0 °F 70.7 °F 43% 29.96 in 10.0 mi Variable 2.3 mph - N/A   Clear
5:58 PM 93.6 °F 103.2 °F 73.8 °F 52% 29.95 in 10.0 mi ENE 2.3 mph - N/A   Clear
6:58 PM 89.8 °F 101.5 °F 76.1 °F 64% 29.96 in 10.0 mi ENE 1.2 mph - N/A   Clear
7:58 PM 82.9 °F 92.1 °F 77.4 °F 83% 29.96 in 10.0 mi Calm Calm - N/A   Clear
8:58 PM 81.3 °F 88.3 °F 76.3 °F 85% 29.98 in 10.0 mi NNE 2.3 mph - N/A   Clear
9:58 PM 81.5 °F 88.7 °F 76.5 °F 85% 29.97 in 9.0 mi NE 2.3 mph - N/A   Clear
10:58 PM 79.7 °F - 76.3 °F 89% 29.97 in 10.0 mi NNE 1.2 mph - N/A   Clear
11:58 PM 78.3 °F - 77.4 °F 97% 29.96 in 10.0 mi Calm Calm - N/A   Clear